When you browse on this site, cookies collect data to enhance your experience and personalize the content and advertising you see.
Visit our Privacy Policy to learn more. By continuing to use the site, you agree to this use of cookies and data.

Hourly Weather Stockholm

Today, 15 August, Saturday

Time Temperature Precipitation Wind Pressure Humidity
00:00 +19°C° 0 mm 2 mps 759 mmHg 77%
01:00 +19°C° 0 mm 2 mps 759 mmHg 76%
02:00 +19°C° 0 mm 2 mps 759 mmHg 76%
03:00 +18°C° 0 mm 2 mps 759 mmHg 76%
04:00 +18°C° 0 mm 2 mps 759 mmHg 76%
05:00 +19°C° 0 mm 2 mps 759 mmHg 72%
06:00 +20°C° 0 mm 2 mps 759 mmHg 68%
07:00 +21°C° 0 mm 2 mps 759 mmHg 64%
08:00 +24°C° 0 mm 2 mps 759 mmHg 58%
09:00 +26°C° 0 mm 3 mps 760 mmHg 52%
10:00 +27°C° 0 mm 3 mps 760 mmHg 45%
11:00 +28°C° 0 mm 3 mps 760 mmHg 43%
12:00 +29°C° 0 mm 3 mps 760 mmHg 40%
13:00 +29°C° 0 mm 3 mps 760 mmHg 37%
14:00 +29°C° 0 mm 3 mps 760 mmHg 38%
15:00 +29°C° 0 mm 3 mps 759 mmHg 38%
16:00 +29°C° 0 mm 4 mps 759 mmHg 38%
17:00 +28°C° 0 mm 3 mps 759 mmHg 43%
18:00 +26°C° 0 mm 3 mps 759 mmHg 47%
19:00 +25°C° 0 mm 3 mps 759 mmHg 51%
20:00 +24°C° 0 mm 3 mps 759 mmHg 54%
21:00 +21°C° 0 mm 3 mps 759 mmHg 56%
22:00 +20°C° 0 mm 3 mps 759 mmHg 58%
23:00 +20°C° 0 mm 3 mps 759 mmHg 61%

Tomorrow, 16 August, Sunday

Time Temperature Precipitation Wind Pressure Humidity
00:00 +19°C° 0 mm 3 mps 759 mmHg 63%
01:00 +19°C° 0 mm 3 mps 759 mmHg 66%
02:00 +18°C° 0 mm 3 mps 759 mmHg 67%
03:00 +18°C° 0 mm 3 mps 759 mmHg 69%
04:00 +18°C° 0 mm 3 mps 759 mmHg 70%
05:00 +19°C° 0 mm 3 mps 759 mmHg 65%
06:00 +20°C° 0 mm 3 mps 760 mmHg 60%
07:00 +21°C° 0 mm 3 mps 760 mmHg 55%
08:00 +22°C° 0 mm 3 mps 760 mmHg 50%
09:00 +25°C° 0 mm 3 mps 760 mmHg 45%
10:00 +26°C° 0 mm 3 mps 760 mmHg 40%
11:00 +27°C° 0 mm 3 mps 760 mmHg 39%
12:00 +28°C° 0 mm 3 mps 760 mmHg 37%
13:00 +28°C° 0 mm 3 mps 760 mmHg 35%
14:00 +28°C° 0 mm 3 mps 760 mmHg 38%
15:00 +28°C° 0 mm 3 mps 760 mmHg 41%
16:00 +27°C° 0 mm 3 mps 760 mmHg 43%
17:00 +25°C° 0 mm 3 mps 760 mmHg 53%
18:00 +22°C° 0 mm 3 mps 759 mmHg 62%
19:00 +21°C° 0 mm 3 mps 759 mmHg 71%
20:00 +20°C° 0 mm 3 mps 759 mmHg 74%
21:00 +19°C° 0 mm 3 mps 759 mmHg 77%
22:00 +18°C° 0 mm 2 mps 760 mmHg 80%
23:00 +18°C° 0 mm 2 mps 759 mmHg 79%

Day after tomorrow, 17 August, Monday

Time Temperature Precipitation Wind Pressure Humidity
00:00 +18°C° 0 mm 2 mps 759 mmHg 78%
01:00 +18°C° 0 mm 2 mps 759 mmHg 78%
02:00 +17°C° 0 mm 2 mps 759 mmHg 77%
03:00 +17°C° 0 mm 2 mps 759 mmHg 77%
04:00 +17°C° 0 mm 2 mps 759 mmHg 77%
05:00 +18°C° 0 mm 2 mps 759 mmHg 72%
06:00 +20°C° 0 mm 2 mps 759 mmHg 67%
07:00 +21°C° 0 mm 2 mps 759 mmHg 62%
08:00 +24°C° 0 mm 1 mps 759 mmHg 56%
09:00 +25°C° 0 mm 1 mps 759 mmHg 49%
10:00 +27°C° 0 mm 1 mps 758 mmHg 43%
11:00 +27°C° 0 mm 2 mps 758 mmHg 42%
12:00 +28°C° 0 mm 2 mps 758 mmHg 40%
13:00 +28°C° 0 mm 2 mps 758 mmHg 39%
14:00 +28°C° 0 mm 2 mps 758 mmHg 41%
15:00 +27°C° 0 mm 2 mps 758 mmHg 43%
16:00 +27°C° 0 mm 2 mps 758 mmHg 45%
17:00 +25°C° 0 mm 2 mps 757 mmHg 54%
18:00 +22°C° 0 mm 3 mps 757 mmHg 63%
19:00 +20°C° 0 mm 3 mps 757 mmHg 73%
20:00 +19°C° 0 mm 3 mps 757 mmHg 77%
21:00 +18°C° 0 mm 3 mps 758 mmHg 82%
22:00 +17°C° 0 mm 2 mps 758 mmHg 87%
23:00 +17°C° 0 mm 2 mps 757 mmHg 88%

18 August, Tuesday

Time Temperature Precipitation Wind Pressure Humidity
00:00 +17°C° 0 mm 2 mps 757 mmHg 89%
01:00 +17°C° 0 mm 2 mps 757 mmHg 89%
02:00 +17°C° 0 mm 2 mps 757 mmHg 89%
03:00 +17°C° 0 mm 2 mps 757 mmHg 89%
04:00 +17°C° 0 mm 2 mps 756 mmHg 89%
05:00 +18°C° 0 mm 2 mps 756 mmHg 82%
06:00 +20°C° 0 mm 2 mps 756 mmHg 76%
07:00 +21°C° 0 mm 2 mps 756 mmHg 69%
08:00 +23°C° 0 mm 2 mps 756 mmHg 63%
09:00 +24°C° 0 mm 2 mps 756 mmHg 57%
10:00 +25°C° 0 mm 3 mps 755 mmHg 51%
11:00 +26°C° 0 mm 3 mps 755 mmHg 48%
12:00 +27°C° 0 mm 3 mps 755 mmHg 45%
13:00 +27°C° 0 mm 3 mps 755 mmHg 42%
14:00 +27°C° 0 mm 3 mps 754 mmHg 44%
15:00 +27°C° 0 mm 3 mps 754 mmHg 45%
16:00 +26°C° 0 mm 3 mps 754 mmHg 46%
17:00 +25°C° 0 mm 3 mps 753 mmHg 50%
18:00 +24°C° 0 mm 3 mps 753 mmHg 54%
19:00 +22°C° 0 mm 3 mps 753 mmHg 58%
20:00 +21°C° 0 mm 3 mps 753 mmHg 61%
21:00 +20°C° 0 mm 3 mps 753 mmHg 65%
22:00 +19°C° 0 mm 3 mps 753 mmHg 69%
23:00 +19°C° 0 mm 3 mps 753 mmHg 70%

19 August, Wednesday

Time Temperature Precipitation Wind Pressure Humidity
00:00 +19°C° 0 mm 2 mps 753 mmHg 72%
01:00 +18°C° 0 mm 2 mps 753 mmHg 74%
02:00 +18°C° 0 mm 2 mps 753 mmHg 74%
03:00 +18°C° 0 mm 2 mps 753 mmHg 74%
04:00 +17°C° 0 mm 2 mps 752 mmHg 74%
05:00 +19°C° 0 mm 2 mps 752 mmHg 69%
06:00 +20°C° 0 mm 3 mps 752 mmHg 65%
07:00 +21°C° 0 mm 3 mps 752 mmHg 60%
08:00 +24°C° 0 mm 3 mps 752 mmHg 55%
09:00 +25°C° 0 mm 4 mps 752 mmHg 49%
10:00 +26°C° 0 mm 4 mps 752 mmHg 44%
11:00 +27°C° 0 mm 4 mps 752 mmHg 43%
12:00 +27°C° 0 mm 5 mps 752 mmHg 42%
13:00 +27°C° 0 mm 5 mps 751 mmHg 41%
14:00 +27°C° 0 mm 5 mps 751 mmHg 42%
15:00 +27°C° 0 mm 5 mps 751 mmHg 44%
16:00 +26°C° 0 mm 5 mps 751 mmHg 46%
17:00 +25°C° 0 mm 5 mps 750 mmHg 51%
18:00 +22°C° 0 mm 5 mps 750 mmHg 57%
19:00 +21°C° 0 mm 4 mps 750 mmHg 63%
20:00 +20°C° 0 mm 4 mps 750 mmHg 68%
21:00 +20°C° 0 mm 4 mps 750 mmHg 73%
22:00 +19°C° 0 mm 4 mps 750 mmHg 78%
23:00 +19°C° 0 mm 3 mps 750 mmHg 81%

20 August, Thursday

Time Temperature Precipitation Wind Pressure Humidity
00:00 +18°C° 0 mm 3 mps 749 mmHg 85%
01:00 +18°C° 0 mm 2 mps 749 mmHg 88%
02:00 +18°C° 0 mm 2 mps 749 mmHg 88%
03:00 +17°C° 0 mm 2 mps 749 mmHg 89%
04:00 +18°C° 0 mm 1 mps 749 mmHg 89%
05:00 +19°C° 0 mm 1 mps 749 mmHg 86%
06:00 +19°C° 0 mm 1 mps 749 mmHg 83%
07:00 +20°C° 0 mm 1 mps 749 mmHg 81%
08:00 +21°C° 0 mm 2 mps 750 mmHg 72%
09:00 +23°C° 0 mm 2 mps 750 mmHg 64%
10:00 +24°C° 0 mm 2 mps 750 mmHg 56%
11:00 +25°C° 0 mm 2 mps 750 mmHg 53%
12:00 +25°C° 0 mm 3 mps 750 mmHg 51%
13:00 +26°C° 0 mm 3 mps 750 mmHg 49%
14:00 +25°C° 0.3 mm 3 mps 750 mmHg 54%
15:00 +25°C° 0.3 mm 4 mps 750 mmHg 59%
16:00 +23°C° 0.3 mm 4 mps 750 mmHg 64%
17:00 +22°C° 0.2 mm 3 mps 750 mmHg 69%
18:00 +21°C° 0.2 mm 3 mps 750 mmHg 75%
19:00 +20°C° 0.2 mm 2 mps 750 mmHg 80%
20:00 +19°C° 0 mm 2 mps 751 mmHg 82%
21:00 +18°C° 0 mm 2 mps 751 mmHg 84%
22:00 +18°C° 0 mm 2 mps 751 mmHg 86%
23:00 +17°C° 0 mm 2 mps 751 mmHg 86%
Show more